Weather History for Washington, DC

Change the Weather History Date:

Monday, April 7, 2014

  Actual Average Record
Temperature  
Mean Temperature 48 °F 54 °F  
Max Temperature 54 °F 64 °F 94 °F (1929)
Min Temperature 42 °F 44 °F 24 °F (1982)
Degree Days  
Heating Degree Days 17 11  
Month to date heating degree days 72 86  
Since 1 July heating degree days 3916 3762  
Cooling Degree Days 0 0  
Month to date cooling degree days 0 0  
Year to date cooling degree days 0 2  
Moisture  
Dew Point 45 °F    
Average Humidity 72    
Maximum Humidity 93    
Minimum Humidity 50    
Precipitation  
Precipitation 0.38 in 0.11 in 1.04 in (1988)
Month to date precipitation 0.44 0.77  
Year to date precipitation 11.30 9.68  
Snow  
Snow 0.00 in 0.00 in 0.60 in (1972)
Month to date snowfall 0.0 0.0  
Since 1 July snowfall 32.0 15.4  
Snow Depth 0.00 in    
Sea Level Pressure  
Sea Level Pressure 29.87 in    
Wind  
Wind Speed 7 mph (NE)    
Max Wind Speed 18 mph    
Max Gust Speed 26 mph    
Visibility 5 miles    
Events Rain    
T = Trace of Precipitation, MM = Missing Value Source: NWS Daily Summary

Daily Weather History Graph

Daily Weather History Graph

Search for Another Location

Airport:

Trip Planner

Search our weather history database for the weather conditions in past years. The results will help you decide how hot, cold, wet, or windy it might be!

Date:

Astronomy

Apr. 07, 2014 Rise Set
Actual Time 6:43 AM EDT 7:37 PM EDT
Civil Twilight 6:16 AM EDT 8:04 PM EDT
Nautical Twilight 5:44 AM EDT 8:36 PM EDT
Astronomical Twilight 5:11 AM EDT 9:10 PM EDT
Moon 12:39 PM EDT (4/7) 2:11 AM EDT (4/7)
Length of Visible Light 13h 48m
Length of Day
12h 53m
First Quarter, 53% of the Moon is Illuminated
Apr 7
First Quarter
Apr 15
Full
Apr 22
Last Quarter
Apr 29
New
May 6
First Quarter

Hourly Weather History & Observations

Time (EDT) Temp. Windchill Dew Point Humidity Pressure Visibility Wind Dir Wind Speed Gust Speed Precip Events Conditions
12:52 AM 48.0 °F - 30.0 °F 50% 30.19 in 10.0 mi SSE 5.8 mph - N/A   Overcast
1:52 AM 46.0 °F 43.1 °F 30.0 °F 54% 30.17 in 10.0 mi SE 5.8 mph - N/A   Overcast
2:52 AM 46.0 °F 43.9 °F 32.0 °F 58% 30.15 in 10.0 mi SE 4.6 mph - N/A   Overcast
3:52 AM 46.0 °F 44.8 °F 32.0 °F 58% 30.14 in 10.0 mi SE 3.5 mph - N/A   Overcast
4:52 AM 46.9 °F - 34.0 °F 61% 30.13 in 10.0 mi Calm Calm - N/A   Overcast
5:52 AM 46.9 °F - 34.0 °F 61% 30.12 in 10.0 mi Calm Calm - N/A   Overcast
6:52 AM 46.9 °F - 35.1 °F 63% 30.14 in 10.0 mi ESE 3.5 mph - 0.00 in Rain Light Rain
7:52 AM 46.9 °F - 30.9 °F 54% 30.14 in 10.0 mi ENE 8.1 mph - 0.00 in Rain Light Rain
8:18 AM 46.4 °F 42.4 °F 33.8 °F 62% 30.12 in 10.0 mi East 8.1 mph - 0.00 in Rain Light Rain
8:52 AM 45.0 °F 39.7 °F 34.0 °F 65% 30.12 in 8.0 mi ENE 10.4 mph - 0.00 in Rain Light Rain
9:52 AM 43.0 °F 37.7 °F 35.1 °F 74% 30.10 in 9.0 mi ENE 9.2 mph - 0.04 in Rain Light Rain
10:52 AM 43.0 °F 36.8 °F 37.0 °F 80% 30.09 in 5.0 mi NE 11.5 mph - 0.05 in Rain Light Rain
11:36 AM 42.8 °F 37.5 °F 37.4 °F 81% 30.06 in 4.0 mi ENE 9.2 mph - 0.04 in Rain Light Rain
11:52 AM 44.1 °F 39.0 °F 39.0 °F 82% 30.05 in 6.0 mi NE 9.2 mph - 0.05 in Rain Light Rain
12:40 PM 44.6 °F 40.2 °F 39.2 °F 81% 30.00 in 4.0 mi ENE 8.1 mph - 0.02 in Rain Light Rain
12:52 PM 46.0 °F 41.9 °F 41.0 °F 83% 29.99 in 5.0 mi ENE 8.1 mph - 0.03 in Rain Light Rain
1:52 PM 48.9 °F - 45.0 °F 86% 29.87 in 9.0 mi East 11.5 mph - 0.02 in Rain Light Rain
1:59 PM 50.0 °F - 46.4 °F 87% 29.85 in 9.0 mi ESE 12.7 mph - 0.00 in Rain Light Rain
2:33 PM 51.8 °F - 48.2 °F 88% 29.87 in 10.0 mi Variable 5.8 mph - 0.00 in   Overcast
2:52 PM 53.1 °F - 48.0 °F 83% 29.87 in 10.0 mi Variable 4.6 mph - 0.00 in   Overcast
3:08 PM 53.6 °F - 48.2 °F 82% 29.85 in 3.0 mi SSW 3.5 mph - 0.00 in Rain Light Rain
3:12 PM 53.6 °F - 48.2 °F 82% 29.85 in 2.0 mi SSE 4.6 mph - 0.01 in Rain Rain
3:15 PM 53.6 °F - 48.2 °F 82% 29.85 in 1.8 mi Calm Calm - 0.04 in Rain Rain
3:23 PM 53.6 °F - 50.0 °F 88% 29.85 in 2.0 mi Calm Calm - 0.06 in Rain Light Rain
3:27 PM 53.6 °F - 50.0 °F 88% 29.84 in 1.8 mi Calm Calm - 0.07 in Rain Rain
3:42 PM 53.6 °F - 48.2 °F 82% 29.84 in 2.0 mi North 5.8 mph - 0.12 in Rain Light Rain
3:52 PM 53.1 °F - 50.0 °F 89% 29.86 in 2.5 mi NW 4.6 mph - 0.13 in Rain Light Rain
4:33 PM 51.8 °F - 48.2 °F 88% 29.79 in 3.0 mi North 9.2 mph - 0.03 in Rain Light Rain
4:38 PM 51.8 °F - 48.2 °F 88% 29.79 in 3.0 mi North 6.9 mph - 0.03 in   Light Drizzle
4:46 PM 51.8 °F - 48.2 °F 88% 29.78 in 3.0 mi North 6.9 mph - N/A   Light Drizzle
4:52 PM 52.0 °F - 48.9 °F 89% 29.77 in 3.0 mi North 8.1 mph - 0.03 in   Light Drizzle
4:54 PM 51.8 °F - 50.0 °F 94% 29.77 in 2.5 mi North 6.9 mph - 0.00 in   Light Drizzle
5:02 PM 53.6 °F - 50.0 °F 88% 29.76 in 1.8 mi North 4.6 mph - 0.00 in   Light Drizzle
5:04 PM 53.6 °F - 50.0 °F 88% 29.76 in 2.0 mi North 4.6 mph - 0.00 in   Light Drizzle
5:11 PM 53.6 °F - 50.0 °F 88% 29.78 in 2.0 mi NNW 5.8 mph - 0.01 in   Light Drizzle
5:18 PM 53.6 °F - 51.8 °F 94% 29.77 in 1.8 mi North 4.6 mph - 0.01 in   Light Drizzle
5:26 PM 53.6 °F - 51.8 °F 94% 29.76 in 2.0 mi North 5.8 mph - 0.01 in   Light Drizzle
5:39 PM 53.6 °F - 51.8 °F 94% 29.76 in 3.0 mi NNE 5.8 mph - 0.01 in   Light Drizzle
5:52 PM 54.0 °F - 51.1 °F 90% 29.77 in 2.0 mi NNE 4.6 mph - 0.01 in   Light Drizzle
5:56 PM 53.6 °F - 51.8 °F 94% 29.76 in 1.5 mi NNE 4.6 mph - 0.01 in   Light Drizzle
6:52 PM 53.1 °F - 51.1 °F 93% 29.70 in 1.5 mi ENE 6.9 mph - 0.01 in   Light Drizzle
7:09 PM 53.6 °F - 50.0 °F 88% 29.71 in 2.0 mi NE 8.1 mph - 0.01 in   Light Drizzle
7:20 PM 53.6 °F - 50.0 °F 88% 29.70 in 3.0 mi NNE 9.2 mph - 0.01 in   Light Drizzle
7:43 PM 53.6 °F - 50.0 °F 88% 29.68 in 2.5 mi NE 8.1 mph - 0.01 in   Light Drizzle
7:52 PM 53.1 °F - 50.0 °F 89% 29.69 in 3.0 mi NE 5.8 mph - 0.01 in   Light Drizzle
7:58 PM 53.6 °F - 50.0 °F 88% 29.69 in 3.0 mi NE 3.5 mph - 0.00 in   Light Drizzle
8:01 PM 53.6 °F - 50.0 °F 88% 29.69 in 2.5 mi NE 4.6 mph - 0.00 in   Light Drizzle
8:16 PM 53.6 °F - 50.0 °F 88% 29.70 in 1.8 mi Calm Calm - 0.00 in   Light Drizzle
8:52 PM 53.1 °F - 51.1 °F 93% 29.71 in 1.2 mi Calm Calm - 0.00 in   Light Drizzle
9:13 PM 53.6 °F - 51.8 °F 94% 29.72 in 2.0 mi WSW 4.6 mph - 0.00 in   Light Drizzle
9:27 PM 53.6 °F - 51.8 °F 94% 29.71 in 2.0 mi SW 3.5 mph - 0.00 in   Light Drizzle
9:34 PM 53.6 °F - 51.8 °F 94% 29.72 in 3.0 mi SSW 6.9 mph - 0.00 in   Light Drizzle
9:52 PM 54.0 °F - 51.1 °F 90% 29.72 in 9.0 mi South 11.5 mph - 0.00 in   Overcast
10:00 PM 53.6 °F - 51.8 °F 94% 29.72 in 10.0 mi South 11.5 mph - N/A   Overcast
10:04 PM 53.6 °F - 50.0 °F 88% 29.72 in 10.0 mi SSW 11.5 mph - N/A   Overcast
10:52 PM 53.1 °F - 48.9 °F 86% 29.68 in 7.0 mi South 12.7 mph - N/A   Overcast
11:52 PM 53.1 °F - 48.9 °F 86% 29.65 in 6.0 mi South 8.1 mph - 0.00 in   Overcast